Regional Weather Roundup
Issued by NWS Sioux Falls, SD

Home | Current Version | Previous Version | Graphics & Text | Print | Product List | Glossary On
Versions: 1 2 3 4 5 6 7 8 9 10 11 12 13 14 15 16 17 18 19 20 21 22 23 24 25 26 27 28 29 30 31 32 33 34 35 36 37 38 39 40 41 42 43 44 45 46 47 48 49 50
000
ASUS43 KFSD 270102
RWRFSD

WEATHER ROUNDUP FOR SE SOUTH DAKOTA/SW MINNESOTA/NW IOWA
NATIONAL WEATHER SERVICE SIOUX FALLS SD
800 PM CDT TUE MAY 26 2015

NOTE: "FAIR" INDICATES FEW OR NO CLOUDS BELOW 12,000 FEET WITH NO
SIGNIFICANT WEATHER AND OR OBSTRUCTIONS TO VISIBILITY.


SDZ038>040-050-052>070-270200-
SOUTHEAST SOUTH DAKOTA

CITY           SKY/WX    TMP DP  RH WIND       PRES   REMARKS
BROOKINGS      CLOUDY    66  54  63 CALM      29.85R
CHAMBERLAIN    DRIZZLE   64  55  71 W7        29.88R
HURON          CLOUDY    72  51  47 E3        29.83R
MADISON        FAIR      64  57  77 NW5       29.85S
MITCHELL       MOCLDY    74  51  44 CALM      29.84S
SIOUX FALLS    CLOUDY    65  52  62 NW7       29.84R
WINNER         FAIR      74  51  44 N5        29.90R
YANKTON        MOCLDY    70  52  52 N5        29.84R
$$

MNZ071-072-080-081-089-090-097-098-270200-
SOUTHWEST MINNESOTA

CITY           SKY/WX    TMP DP  RH WIND       PRES   REMARKS
FAIRMONT       CLOUDY    57  52  82 NW8       29.81S
JACKSON        CLOUDY    59  55  88 N6        29.83S
LUVERNE        MOCLDY    64  55  72 NW3       29.84R
MARSHALL       CLOUDY    63  54  72 CALM      29.81S
MONTEVIDEO     CLOUDY    64  57  77 CALM      29.81S
REDWOOD FALLS  CLOUDY    61  56  83 CALM      29.81R
TRACY          CLOUDY    61  57  87 CALM      29.83R
WINDOM         CLOUDY    59  55  88 CALM      29.83R
WORTHINGTON    CLOUDY    61  55  82 N6        29.83S
$$

IAZ001>003-012>014-020>022-031-032-NEZ013-014-SDZ071-270200-
NORTHWEST IOWA

CITY           SKY/WX    TMP DP  RH WIND       PRES   REMARKS
DENISON        CLOUDY    63  61  94 NW6       29.82S
ESTHERVILLE    CLOUDY    58  54  86 NW9       29.81S
SIOUX CITY     CLEAR     65  55  70 NE7       29.84R
SPENCER        CLOUDY    60  56  86 W6        29.83R
$$

ABBREVIATIONS USED IN REMARKS
   TC - TEMPERATURE IN CELSIUS
  WCI - WIND CHILL INDEX
   HX - HEAT INDEX
  VSB - VISIBILITY



USA.gov is the U.S. government's official web portal to all federal, state and local government web resources and services.